Location: Newark
(0.0000°N, 0.0000°E)
Time: 08:57:13
(UTC+00:00)

X-37B - Visible Passes

Search period start: 20 September 2020 00:00
Search period end: 30 September 2020 00:00
Orbit: 386 x 387 km, 45.0° (Epoch: 18 September)

Date Brightness Start Highest point End Pass type
(mag) Time Alt. Az. Time Alt. Az. Time Alt. Az.
24 Sep 1.9 18:47:13 10° S 18:49:50 23° SE 18:49:53 23° SE visible
25 Sep 2.3 19:24:52 10° WSW 19:27:22 31° WNW 19:27:22 31° WNW visible
26 Sep 0.5 18:26:05 10° SW 18:29:14 74° SE 18:32:23 10° NE visible
27 Sep 3.6 19:05:48 10° WNW 19:07:10 12° NW 19:08:32 10° NNW visible
28 Sep 3.5 04:59:32 10° N 05:01:24 15° NE 05:03:15 10° E visible
